Comox, British Columbia

12:28 AM PDT on October 18, 2017 (GMT -0700)
Comox

Weather History for CYQQ - April, 2013

Change the Weather History Date:

Tuesday, April 30, 2013

  Actual Average Record
Temperature  
Mean Temperature 46 °F -  
Max Temperature 54 °F 62 °F 78 °F (1998)
Min Temperature 37 °F 45 °F 33 °F (2008)
Degree Days  
Heating Degree Days 20    
Moisture  
Dew Point 27 °F    
Average Humidity 48    
Maximum Humidity 65    
Minimum Humidity 25    
Precipitation  
Precipitation 0.00 in 0.06 in - ()
Sea Level Pressure  
Sea Level Pressure 30.31 in    
Wind  
Wind Speed 10 mph ()    
Max Wind Speed 21 mph    
Max Gust Speed 21 mph    
Visibility 19.9 miles    
Events      
Averages and records for this station are not official NWS values.
T = Trace of Precipitation, MM = Missing Value Source: Averaged Metar Reports

Daily Weather History Graph

Daily Weather History Graph

Search for Another Location

Airport or City:

Trip Planner

Search our weather history database for the weather conditions in past years. The results will help you decide how hot, cold, wet, or windy it might be!

Date:

Astronomy

Apr. 30, 2013 Rise Set
Actual Time 5:57 AM PDT 8:36 PM PDT
Civil Twilight 5:21 AM PDT 9:13 PM PDT
Nautical Twilight 4:35 AM PDT 9:59 PM PDT
Astronomical Twilight 3:41 AM PDT 10:54 PM PDT
Moon 1:10 AM PDT (4/30) 10:28 AM PDT (4/30)
Length of Visible Light 15h 51m
Length of Day
14h 38m
Waning Gibbous, 69% of the Moon is Illuminated
Apr 30
Waning Gibbous
May 2
Last Quarter
May 9
New
May 17
First Quarter
May 24
Full

Hourly Weather History & Observations

Time (PDT) Temp. Windchill Dew Point Humidity Pressure Visibility Wind Dir Wind Speed Gust Speed Precip Events Conditions
12:00 AM 41.0 °F 33.9 °F 28.4 °F 61% 30.17 in 20.0 mi NNW 12.7 mph 20.7 mph N/A   Partly Cloudy
1:00 AM 39.2 °F 33.6 °F 28.4 °F 65% 30.18 in 20.0 mi NNW 8.1 mph - N/A   Partly Cloudy
2:00 AM 39.2 °F 33.0 °F 28.4 °F 65% 30.19 in 20.0 mi NW 9.2 mph - N/A   Partly Cloudy
3:00 AM 39.2 °F 33.6 °F 28.4 °F 65% 30.19 in 20.0 mi NW 8.1 mph - N/A   Partly Cloudy
4:00 AM 37.4 °F 32.1 °F 26.6 °F 65% 30.21 in 20.0 mi NNW 6.9 mph - N/A   Partly Cloudy
5:00 AM 40 °F - 26 °F 45% 30.21 in 19 mi NW 13.8 mph - -   Scattered Clouds
5:00 AM 39.2 °F 31.2 °F 26.6 °F 61% 30.21 in 20.0 mi NW 13.8 mph 20.7 mph N/A   Partly Cloudy
6:00 AM 39.2 °F 30.5 °F 24.8 °F 56% 30.23 in 20.0 mi NW 16.1 mph - N/A   Partly Cloudy
7:00 AM 41.0 °F 32.5 °F 24.8 °F 53% 30.25 in 20.0 mi NW 17.3 mph - N/A   Partly Cloudy
8:00 AM 42.8 °F 34.3 °F 26.6 °F 53% 30.27 in 20.0 mi NNW 19.6 mph - N/A   Partly Cloudy
9:00 AM 44.6 °F 37.2 °F 26.6 °F 49% 30.29 in 20.0 mi NW 17.3 mph - N/A   Partly Cloudy
10:00 AM 46.4 °F 38.7 °F 28.4 °F 50% 30.30 in 20.0 mi NNW 20.7 mph - N/A   Partly Cloudy
11:00 AM 48 °F - 29 °F 36% 30.32 in 19 mi NNW 15.0 mph - -   Scattered Clouds
11:00 AM 48.2 °F - 30.2 °F 50% 30.32 in 20.0 mi NNW 12.7 mph 19.6 mph N/A   Partly Cloudy
12:00 PM 50.0 °F - 32.0 °F 50% 30.33 in 20.0 mi NNW 12.7 mph - N/A   Partly Cloudy
1:00 PM 51.8 °F - 32.0 °F 47% 30.34 in 20.0 mi North 12.7 mph - N/A   Partly Cloudy
2:00 PM 51.8 °F - 33.8 °F 50% 30.35 in 20.0 mi NNE 10.4 mph - N/A   Partly Cloudy
3:00 PM 51.8 °F - 30.2 °F 44% 30.36 in 20.0 mi NNE 9.2 mph - N/A   Partly Cloudy
4:00 PM 51.8 °F - 26.6 °F 38% 30.36 in 20.0 mi NNE 6.9 mph - N/A   Partly Cloudy
5:00 PM 52 °F - 27 °F 25% 30.36 in 19 mi East 4.6 mph - -   Scattered Clouds
5:00 PM 51.8 °F - 26.6 °F 38% 30.36 in 20.0 mi East 4.6 mph - N/A   Partly Cloudy
6:00 PM 53.6 °F - 24.8 °F 33% 30.37 in 20.0 mi East 4.6 mph - N/A   Partly Cloudy
7:00 PM 53.6 °F - 23.0 °F 30% 30.37 in 20.0 mi NNE 4.6 mph - N/A   Partly Cloudy
8:00 PM 51.8 °F - 23.0 °F 33% 30.38 in 20.0 mi NW 3.5 mph - N/A   Partly Cloudy
9:00 PM 50.0 °F - 26.6 °F 40% 30.40 in 20.0 mi WNW 3.5 mph - N/A   Partly Cloudy
10:00 PM 46.4 °F 43.5 °F 26.6 °F 46% 30.42 in 20.0 mi WNW 5.8 mph - N/A   Clear
11:00 PM 45 °F - 26 °F 35% 30.44 in 19 mi WNW 6.9 mph - -  
11:00 PM 44.6 °F 40.7 °F 26.6 °F 49% 30.44 in 20.0 mi WNW 6.9 mph - N/A   Clear